Time,TemperatureF,DewpointF,PressureIn,WindDirection,WindDirectionDegrees,WindSpeedMPH,WindSpeedGustMPH,Humidity,HourlyPrecipIn,Conditions,Clouds,dailyrainin,SoftwareType,DateUTC
2013-01-26 00:00:00,33.6,33.6,30.01,SSW,209,0.0,2.0,100,-0.17,,,0.00,Weather View 32 v70,2013-01-26 05:00:00,
2013-01-26 00:01:00,33.6,33.6,30.01,SSW,209,0.0,2.0,100,-0.17,,,0.00,Weather View 32 v70,2013-01-26 05:01:00,
2013-01-26 00:02:00,33.5,33.5,30.01,SSW,209,0.0,2.0,100,-0.17,,,0.00,Weather View 32 v70,2013-01-26 05:02:00,
2013-01-26 00:07:00,33.4,33.4,30.01,SSW,209,0.0,2.0,100,-0.17,,,0.00,Weather View 32 v70,2013-01-26 05:07:00,
2013-01-26 00:12:00,33.2,33.2,30.01,SSW,209,0.0,2.0,100,-0.17,,,0.00,Weather View 32 v70,2013-01-26 05:12:00,
2013-01-26 00:17:00,32.8,32.8,30.01,SSW,208,0.0,2.0,100,-0.17,,,0.00,Weather View 32 v70,2013-01-26 05:17:00,
2013-01-26 00:22:00,32.3,32.3,30.01,SSW,208,0.0,2.0,100,-0.17,,,0.00,Weather View 32 v70,2013-01-26 05:22:00,
2013-01-26 00:27:00,32.0,32.0,30.01,SSW,208,0.0,2.0,100,-0.17,,,0.00,Weather View 32 v70,2013-01-26 05:27:00,
2013-01-26 00:32:00,31.9,31.9,30.01,SSW,208,0.0,2.0,100,-0.17,,,0.00,Weather View 32 v70,2013-01-26 05:32:00,
2013-01-26 00:37:00,32.0,32.0,30.01,SSW,209,0.0,2.0,100,-0.17,,,0.00,Weather View 32 v70,2013-01-26 05:37:00,
2013-01-26 00:42:00,32.0,32.0,30.01,South,190,0.0,2.0,100,-0.17,,,0.00,Weather View 32 v70,2013-01-26 05:42:00,
2013-01-26 00:47:00,31.9,31.9,30.01,South,190,0.0,2.0,100,-0.17,,,0.00,Weather View 32 v70,2013-01-26 05:47:00,
2013-01-26 00:52:00,32.0,32.0,30.01,SW,236,0.0,2.0,100,-0.17,,,0.00,Weather View 32 v70,2013-01-26 05:52:00,
2013-01-26 00:57:00,32.0,32.0,30.01,SW,236,0.0,2.0,100,-0.17,,,0.00,Weather View 32 v70,2013-01-26 05:57:00,
2013-01-26 01:02:00,31.9,31.9,30.01,SW,236,0.0,0.0,100,0.00,,,0.00,Weather View 32 v70,2013-01-26 06:02:00,
2013-01-26 01:07:00,31.9,31.9,30.02,SSE,156,0.0,0.0,100,0.00,,,0.00,Weather View 32 v70,2013-01-26 06:07:00,
2013-01-26 01:13:00,31.8,31.8,30.02,SSE,156,0.0,0.0,100,0.00,,,0.00,Weather View 32 v70,2013-01-26 06:13:00,
2013-01-26 01:18:00,31.7,31.7,30.01,South,178,0.0,0.0,100,0.00,,,0.00,Weather View 32 v70,2013-01-26 06:18:00,
2013-01-26 01:23:00,31.7,31.7,30.01,SSW,212,0.0,0.0,100,0.00,,,0.00,Weather View 32 v70,2013-01-26 06:23:00,
2013-01-26 01:28:00,31.8,31.8,30.01,SSW,211,0.0,0.0,100,0.00,,,0.00,Weather View 32 v70,2013-01-26 06:28:00,
2013-01-26 01:33:00,31.7,31.7,30.01,SSW,209,0.0,0.0,100,0.00,,,0.00,Weather View 32 v70,2013-01-26 06:33:00,
2013-01-26 01:38:00,31.8,31.8,30.01,SSW,195,2.0,0.0,100,0.00,,,0.00,Weather View 32 v70,2013-01-26 06:38:00,
2013-01-26 01:43:00,31.8,31.8,30.01,SSW,205,0.0,2.0,100,0.00,,,0.00,Weather View 32 v70,2013-01-26 06:43:00,
2013-01-26 01:48:00,31.6,31.6,30.02,SSE,158,1.0,2.0,100,0.00,,,0.00,Weather View 32 v70,2013-01-26 06:48:00,
2013-01-26 01:53:00,31.6,31.6,30.02,SW,219,2.0,2.0,100,0.00,,,0.00,Weather View 32 v70,2013-01-26 06:53:00,
2013-01-26 01:58:00,31.5,31.5,30.02,SSW,212,0.0,2.0,100,0.00,,,0.00,Weather View 32 v70,2013-01-26 06:58:00,
2013-01-26 02:03:00,31.4,31.4,30.02,WSW,238,0.0,2.0,100,0.00,,,0.00,Weather View 32 v70,2013-01-26 07:03:00,
2013-01-26 02:08:00,31.4,31.4,30.02,SSW,212,0.0,2.0,100,0.00,,,0.00,Weather View 32 v70,2013-01-26 07:08:00,
2013-01-26 02:13:00,31.2,31.2,30.02,SSW,205,0.0,2.0,100,0.00,,,0.00,Weather View 32 v70,2013-01-26 07:13:00,
2013-01-26 02:18:00,31.0,31.0,30.02,SW,215,0.0,2.0,100,0.00,,,0.00,Weather View 32 v70,2013-01-26 07:18:00,
2013-01-26 02:23:00,31.0,31.0,30.02,SSW,208,0.0,2.0,100,0.00,,,0.00,Weather View 32 v70,2013-01-26 07:23:00,
2013-01-26 02:28:00,30.9,30.9,30.02,SW,225,0.0,2.0,100,0.00,,,0.00,Weather View 32 v70,2013-01-26 07:28:00,
2013-01-26 02:33:00,30.9,30.9,30.01,SW,229,0.0,2.0,100,0.00,,,0.00,Weather View 32 v70,2013-01-26 07:33:00,
2013-01-26 02:38:00,31.0,31.0,30.01,SSE,166,0.0,2.0,100,0.00,,,0.00,Weather View 32 v70,2013-01-26 07:38:00,
2013-01-26 02:43:00,31.0,31.0,30.01,SSW,200,0.0,2.0,100,0.00,,,0.00,Weather View 32 v70,2013-01-26 07:43:00,
2013-01-26 02:48:00,31.0,31.0,30.01,SW,224,0.0,2.0,100,0.00,,,0.00,Weather View 32 v70,2013-01-26 07:48:00,
2013-01-26 02:53:00,31.0,31.0,30.02,SW,221,0.0,2.0,100,0.00,,,0.00,Weather View 32 v70,2013-01-26 07:53:00,
2013-01-26 02:58:00,30.9,30.9,30.02,SSE,164,0.0,1.0,100,0.00,,,0.00,Weather View 32 v70,2013-01-26 07:58:00,
2013-01-26 03:03:00,30.9,30.9,30.01,WSW,238,2.0,4.0,100,0.00,,,0.00,Weather View 32 v70,2013-01-26 08:03:00,
2013-01-26 03:08:00,30.9,30.9,30.01,WSW,242,0.0,4.0,100,0.00,,,0.00,Weather View 32 v70,2013-01-26 08:08:00,
2013-01-26 03:13:00,31.0,31.0,30.02,SW,232,0.0,4.0,100,0.00,,,0.00,Weather View 32 v70,2013-01-26 08:13:00,
2013-01-26 03:18:00,31.0,31.0,30.02,WSW,241,0.0,4.0,100,0.00,,,0.00,Weather View 32 v70,2013-01-26 08:18:00,
2013-01-26 03:23:00,31.1,31.1,30.02,SW,236,0.0,4.0,100,0.00,,,0.00,Weather View 32 v70,2013-01-26 08:23:00,
2013-01-26 03:28:00,31.4,31.4,30.02,WSW,241,5.0,7.0,100,0.00,,,0.00,Weather View 32 v70,2013-01-26 08:28:00,
2013-01-26 03:33:00,31.1,31.1,30.02,West,260,3.0,7.0,100,0.00,,,0.00,Weather View 32 v70,2013-01-26 08:33:00,
2013-01-26 03:38:00,31.1,31.1,30.02,East,97,1.0,7.0,100,0.00,,,0.00,Weather View 32 v70,2013-01-26 08:38:00,
2013-01-26 03:43:00,31.1,31.1,30.02,SW,220,0.0,7.0,100,0.00,,,0.00,Weather View 32 v70,2013-01-26 08:43:00,
2013-01-26 03:48:00,31.3,31.3,30.02,SW,222,3.0,7.0,100,0.00,,,0.00,Weather View 32 v70,2013-01-26 08:48:00,
2013-01-26 03:53:00,31.3,31.3,30.02,ENE,68,0.0,7.0,100,0.00,,,0.00,Weather View 32 v70,2013-01-26 08:53:00,
2013-01-26 03:58:00,31.2,31.2,30.03,ESE,114,2.0,7.0,100,0.00,,,0.00,Weather View 32 v70,2013-01-26 08:58:00,
2013-01-26 04:03:00,31.2,31.2,30.02,SE,139,0.0,7.0,100,0.00,,,0.00,Weather View 32 v70,2013-01-26 09:03:00,
2013-01-26 04:08:00,31.1,31.1,30.02,South,177,0.0,7.0,100,0.00,,,0.00,Weather View 32 v70,2013-01-26 09:08:00,
2013-01-26 04:13:00,31.0,31.0,30.02,SSW,208,2.0,7.0,100,0.00,,,0.00,Weather View 32 v70,2013-01-26 09:13:00,
2013-01-26 04:18:00,31.2,31.2,30.02,South,187,0.0,7.0,100,0.00,,,0.00,Weather View 32 v70,2013-01-26 09:18:00,
2013-01-26 04:23:00,31.3,31.3,30.02,SW,227,0.0,7.0,100,0.00,,,0.00,Weather View 32 v70,2013-01-26 09:23:00,
2013-01-26 04:28:00,31.2,31.2,30.02,West,271,0.0,7.0,100,0.00,,,0.00,Weather View 32 v70,2013-01-26 09:28:00,
2013-01-26 04:33:00,31.0,31.0,30.02,SW,215,0.0,5.0,100,0.00,,,0.00,Weather View 32 v70,2013-01-26 09:33:00,
2013-01-26 04:38:00,31.0,31.0,30.02,SSE,160,0.0,5.0,100,0.00,,,0.00,Weather View 32 v70,2013-01-26 09:38:00,
2013-01-26 04:43:00,31.0,31.0,30.02,SW,232,0.0,5.0,100,0.00,,,0.00,Weather View 32 v70,2013-01-26 09:43:00,
2013-01-26 04:48:00,30.9,30.9,30.02,WNW,294,0.0,5.0,100,0.00,,,0.00,Weather View 32 v70,2013-01-26 09:48:00,
2013-01-26 04:53:00,30.9,30.9,30.02,East,91,0.0,4.0,100,0.00,,,0.00,Weather View 32 v70,2013-01-26 09:53:00,
2013-01-26 04:58:00,30.9,30.9,30.02,SSE,154,0.0,5.0,100,0.00,,,0.00,Weather View 32 v70,2013-01-26 09:58:00,
2013-01-26 05:03:00,30.9,30.9,30.02,SW,222,2.0,5.0,100,0.00,,,0.00,Weather View 32 v70,2013-01-26 10:03:00,
2013-01-26 05:08:00,30.7,30.7,30.02,West,260,1.0,5.0,100,0.00,,,0.00,Weather View 32 v70,2013-01-26 10:08:00,
2013-01-26 05:13:00,30.7,30.7,30.03,NW,306,2.0,5.0,100,0.00,,,0.00,Weather View 32 v70,2013-01-26 10:13:00,
2013-01-26 05:18:00,30.8,30.8,30.03,SW,217,1.0,5.0,100,0.00,,,0.00,Weather View 32 v70,2013-01-26 10:18:00,
2013-01-26 05:23:00,30.7,30.7,30.03,SW,225,4.0,6.0,100,0.00,,,0.00,Weather View 32 v70,2013-01-26 10:23:00,
2013-01-26 05:28:00,30.7,30.7,30.03,West,267,0.0,6.0,100,0.00,,,0.00,Weather View 32 v70,2013-01-26 10:28:00,
2013-01-26 05:33:00,30.5,30.5,30.03,WSW,248,0.0,6.0,100,0.00,,,0.00,Weather View 32 v70,2013-01-26 10:33:00,
2013-01-26 05:38:00,30.4,30.4,30.03,SE,139,1.0,6.0,100,0.00,,,0.00,Weather View 32 v70,2013-01-26 10:38:00,
2013-01-26 05:43:00,30.3,30.3,30.03,SW,230,2.0,6.0,100,0.00,,,0.00,Weather View 32 v70,2013-01-26 10:43:00,
2013-01-26 05:48:00,30.2,30.2,30.03,North,359,1.0,6.0,100,0.00,,,0.00,Weather View 32 v70,2013-01-26 10:48:00,
2013-01-26 05:53:00,30.2,30.2,30.03,South,179,1.0,6.0,100,0.00,,,0.00,Weather View 32 v70,2013-01-26 10:53:00,
2013-01-26 05:58:00,30.1,30.1,30.03,WSW,255,0.0,6.0,100,0.00,,,0.00,Weather View 32 v70,2013-01-26 10:58:00,
2013-01-26 06:03:00,30.1,30.1,30.03,WSW,237,0.0,6.0,100,0.00,,,0.00,Weather View 32 v70,2013-01-26 11:03:00,
2013-01-26 06:08:00,30.0,30.0,30.03,East,88,1.0,6.0,100,0.00,,,0.00,Weather View 32 v70,2013-01-26 11:08:00,
2013-01-26 06:13:00,30.0,30.0,30.04,SW,234,2.0,6.0,100,0.00,,,0.00,Weather View 32 v70,2013-01-26 11:13:00,
2013-01-26 06:18:00,29.9,29.9,30.03,SW,217,2.0,6.0,100,0.00,,,0.00,Weather View 32 v70,2013-01-26 11:18:00,
2013-01-26 06:23:00,30.0,30.0,30.03,SSW,205,4.0,5.0,100,0.00,,,0.00,Weather View 32 v70,2013-01-26 11:23:00,
2013-01-26 06:28:00,29.9,29.9,30.04,SSW,210,0.0,4.0,100,0.00,,,0.00,Weather View 32 v70,2013-01-26 11:28:00,
2013-01-26 06:33:00,29.9,29.9,30.04,WSW,245,0.0,4.0,100,0.00,,,0.00,Weather View 32 v70,2013-01-26 11:33:00,
2013-01-26 06:38:00,30.0,30.0,30.04,WSW,258,0.0,4.0,100,0.00,,,0.00,Weather View 32 v70,2013-01-26 11:38:00,
2013-01-26 06:43:00,30.0,30.0,30.04,SW,216,0.0,4.0,100,0.00,,,0.00,Weather View 32 v70,2013-01-26 11:43:00,
2013-01-26 06:48:00,29.9,29.9,30.04,South,189,0.0,4.0,100,0.00,,,0.00,Weather View 32 v70,2013-01-26 11:48:00,
2013-01-26 06:53:00,29.9,29.9,30.05,SSW,205,0.0,4.0,100,0.00,,,0.00,Weather View 32 v70,2013-01-26 11:53:00,
2013-01-26 06:58:00,29.8,29.8,30.05,SSW,199,0.0,4.0,100,0.00,,,0.00,Weather View 32 v70,2013-01-26 11:58:00,
2013-01-26 07:03:00,29.7,29.7,30.05,ESE,113,0.0,4.0,100,0.00,,,0.00,Weather View 32 v70,2013-01-26 12:03:00,
2013-01-26 07:08:00,29.7,29.7,30.06,SW,226,0.0,4.0,100,0.00,,,0.00,Weather View 32 v70,2013-01-26 12:08:00,
2013-01-26 07:13:00,29.7,29.7,30.05,SSW,198,0.0,4.0,100,0.00,,,0.00,Weather View 32 v70,2013-01-26 12:13:00,
2013-01-26 07:19:00,29.7,29.7,30.06,South,171,0.0,4.0,100,0.00,,,0.00,Weather View 32 v70,2013-01-26 12:19:00,
2013-01-26 07:24:00,29.6,29.6,30.05,SW,232,0.0,4.0,100,0.00,,,0.00,Weather View 32 v70,2013-01-26 12:24:00,
2013-01-26 07:29:00,29.7,29.7,30.05,WSW,250,0.0,2.0,100,0.00,,,0.00,Weather View 32 v70,2013-01-26 12:29:00,
2013-01-26 07:34:00,29.8,29.8,30.05,WSW,250,1.0,3.0,100,0.00,,,0.00,Weather View 32 v70,2013-01-26 12:34:00,
2013-01-26 07:39:00,29.8,29.8,30.05,SW,216,0.0,3.0,100,0.00,,,0.00,Weather View 32 v70,2013-01-26 12:39:00,
2013-01-26 07:44:00,29.7,29.7,30.06,SE,127,0.0,3.0,100,0.00,,,0.00,Weather View 32 v70,2013-01-26 12:44:00,
2013-01-26 07:49:00,29.8,29.8,30.06,SSW,202,2.0,3.0,100,0.00,,,0.00,Weather View 32 v70,2013-01-26 12:49:00,
2013-01-26 07:54:00,29.8,29.8,30.06,SSE,157,2.0,3.0,100,0.00,,,0.00,Weather View 32 v70,2013-01-26 12:54:00,
2013-01-26 07:59:00,29.8,29.8,30.06,SW,215,2.0,3.0,100,0.00,,,0.00,Weather View 32 v70,2013-01-26 12:59:00,
2013-01-26 08:04:00,30.1,30.1,30.07,SSW,213,0.0,4.0,100,0.00,,,0.00,Weather View 32 v70,2013-01-26 13:04:00,
2013-01-26 08:09:00,30.3,30.3,30.07,SW,228,3.0,4.0,100,0.00,,,0.00,Weather View 32 v70,2013-01-26 13:09:00,
2013-01-26 08:14:00,30.6,30.6,30.07,WSW,251,0.0,4.0,100,0.00,,,0.00,Weather View 32 v70,2013-01-26 13:14:00,
2013-01-26 08:19:00,30.8,30.8,30.07,NW,317,2.0,4.0,100,0.00,,,0.00,Weather View 32 v70,2013-01-26 13:19:00,
2013-01-26 08:24:00,31.1,31.1,30.07,WSW,241,2.0,4.0,100,0.00,,,0.00,Weather View 32 v70,2013-01-26 13:24:00,
2013-01-26 08:29:00,31.3,31.3,30.07,South,187,1.0,4.0,100,0.00,,,0.00,Weather View 32 v70,2013-01-26 13:29:00,
2013-01-26 08:34:00,31.6,31.6,30.07,NNE,31,1.0,4.0,100,0.00,,,0.00,Weather View 32 v70,2013-01-26 13:34:00,
2013-01-26 08:39:00,31.7,31.7,30.07,SW,224,1.0,4.0,100,0.00,,,0.00,Weather View 32 v70,2013-01-26 13:39:00,
2013-01-26 08:44:00,31.9,31.9,30.07,SSW,204,0.0,4.0,100,0.00,,,0.00,Weather View 32 v70,2013-01-26 13:44:00,
2013-01-26 08:49:00,32.1,32.1,30.07,NNW,346,1.0,4.0,100,0.00,,,0.00,Weather View 32 v70,2013-01-26 13:49:00,
2013-01-26 08:54:00,32.9,31.9,30.07,SSW,206,2.0,5.0,96,0.00,,,0.00,Weather View 32 v70,2013-01-26 13:54:00,
2013-01-26 08:59:00,33.8,31.5,30.07,NNW,344,2.0,5.0,91,0.00,,,0.00,Weather View 32 v70,2013-01-26 13:59:00,
2013-01-26 09:04:00,35.8,30.8,30.07,NNW,332,4.0,8.0,82,0.00,,,0.00,Weather View 32 v70,2013-01-26 14:04:00,
2013-01-26 09:09:00,36.6,31.0,30.07,NNW,336,6.0,8.0,80,0.00,,,0.00,Weather View 32 v70,2013-01-26 14:09:00,
2013-01-26 09:14:00,37.3,31.1,30.08,South,191,0.0,10.0,78,0.00,,,0.00,Weather View 32 v70,2013-01-26 14:14:00,
2013-01-26 09:19:00,37.5,29.3,30.08,ENE,57,1.0,10.0,72,0.00,,,0.00,Weather View 32 v70,2013-01-26 14:19:00,
2013-01-26 09:24:00,38.3,31.4,30.09,South,180,2.0,11.0,76,0.00,,,0.00,Weather View 32 v70,2013-01-26 14:24:00,
2013-01-26 09:29:00,38.6,29.3,30.09,North,6,3.0,11.0,69,0.00,,,0.00,Weather View 32 v70,2013-01-26 14:29:00,
2013-01-26 09:34:00,39.3,27.7,30.09,NW,309,0.0,11.0,63,0.00,,,0.00,Weather View 32 v70,2013-01-26 14:34:00,
2013-01-26 09:39:00,39.4,28.6,30.09,ENE,61,2.0,11.0,65,0.00,,,0.00,Weather View 32 v70,2013-01-26 14:39:00,
2013-01-26 09:44:00,40.2,25.7,30.10,NNW,334,2.0,11.0,56,0.00,,,0.00,Weather View 32 v70,2013-01-26 14:44:00,
2013-01-26 09:49:00,40.5,27.7,30.10,North,5,5.0,11.0,60,0.00,,,0.00,Weather View 32 v70,2013-01-26 14:49:00,
2013-01-26 09:54:00,40.3,27.1,30.10,NNW,336,1.0,11.0,59,0.00,,,0.00,Weather View 32 v70,2013-01-26 14:54:00,
2013-01-26 09:59:00,39.8,26.2,30.11,NE,37,3.0,11.0,58,0.00,,,0.00,Weather View 32 v70,2013-01-26 14:59:00,
2013-01-26 10:04:00,39.9,26.3,30.11,NW,317,3.0,11.0,58,0.00,,,0.00,Weather View 32 v70,2013-01-26 15:04:00,
2013-01-26 10:09:00,40.6,26.1,30.11,NNW,333,0.0,11.0,56,0.00,,,0.00,Weather View 32 v70,2013-01-26 15:09:00,
2013-01-26 10:14:00,40.8,23.6,30.11,ENE,70,2.0,11.0,50,0.00,,,0.00,Weather View 32 v70,2013-01-26 15:14:00,
2013-01-26 10:19:00,41.1,23.9,30.11,North,9,0.0,11.0,50,0.00,,,0.00,Weather View 32 v70,2013-01-26 15:19:00,
2013-01-26 10:24:00,41.0,24.7,30.11,North,7,1.0,9.0,52,0.00,,,0.00,Weather View 32 v70,2013-01-26 15:24:00,
2013-01-26 10:29:00,40.8,22.1,30.11,North,7,1.0,9.0,47,0.00,,,0.00,Weather View 32 v70,2013-01-26 15:29:00,
2013-01-26 10:34:00,40.9,23.2,30.12,North,9,0.0,9.0,49,0.00,,,0.00,Weather View 32 v70,2013-01-26 15:34:00,
2013-01-26 10:39:00,41.1,23.4,30.12,SSW,204,0.0,9.0,49,0.00,,,0.00,Weather View 32 v70,2013-01-26 15:39:00,
2013-01-26 10:44:00,41.3,20.5,30.11,NNE,17,0.0,8.0,43,0.00,,,0.00,Weather View 32 v70,2013-01-26 15:44:00,
2013-01-26 10:49:00,41.7,20.8,30.11,North,6,0.0,7.0,43,0.00,,,0.00,Weather View 32 v70,2013-01-26 15:49:00,
2013-01-26 10:54:00,42.0,21.1,30.12,NNE,13,0.0,7.0,43,0.00,,,0.00,Weather View 32 v70,2013-01-26 15:54:00,
2013-01-26 10:59:00,42.1,24.8,30.12,NNW,333,0.0,7.0,50,0.00,,,0.00,Weather View 32 v70,2013-01-26 15:59:00,
2013-01-26 11:04:00,41.9,21.5,30.12,North,5,0.0,7.0,44,0.00,,,0.00,Weather View 32 v70,2013-01-26 16:04:00,
2013-01-26 11:09:00,42.1,22.8,30.12,SW,236,0.0,7.0,46,0.00,,,0.00,Weather View 32 v70,2013-01-26 16:09:00,
2013-01-26 11:14:00,42.1,22.3,30.12,SSW,194,0.0,7.0,45,0.00,,,0.00,Weather View 32 v70,2013-01-26 16:14:00,
2013-01-26 11:19:00,42.1,21.2,30.12,North,7,0.0,7.0,43,0.00,,,0.00,Weather View 32 v70,2013-01-26 16:19:00,
2013-01-26 11:24:00,42.3,22.4,30.12,SW,218,0.0,7.0,45,0.00,,,0.00,Weather View 32 v70,2013-01-26 16:24:00,
2013-01-26 11:29:00,42.3,21.9,30.11,NNW,328,1.0,7.0,44,0.00,,,0.00,Weather View 32 v70,2013-01-26 16:29:00,
2013-01-26 11:34:00,42.5,22.1,30.12,NW,306,0.0,7.0,44,0.00,,,0.00,Weather View 32 v70,2013-01-26 16:34:00,
2013-01-26 11:39:00,42.7,22.3,30.11,North,5,0.0,7.0,44,0.00,,,0.00,Weather View 32 v70,2013-01-26 16:39:00,
2013-01-26 11:44:00,43.2,21.1,30.11,SE,133,0.0,7.0,41,0.00,,,0.00,Weather View 32 v70,2013-01-26 16:44:00,
2013-01-26 11:49:00,43.8,19.2,30.10,North,5,4.0,8.0,37,0.00,,,0.00,Weather View 32 v70,2013-01-26 16:49:00,
2013-01-26 11:54:00,44.0,18.1,30.10,North,352,3.0,8.0,35,0.00,,,0.00,Weather View 32 v70,2013-01-26 16:54:00,
2013-01-26 11:59:00,43.9,18.6,30.10,South,176,1.0,10.0,36,0.00,,,0.00,Weather View 32 v70,2013-01-26 16:59:00,
2013-01-26 12:04:00,44.2,19.5,30.11,South,184,0.0,10.0,37,0.00,,,0.00,Weather View 32 v70,2013-01-26 17:04:00,
2013-01-26 12:09:00,44.3,20.3,30.10,NE,36,7.0,10.0,38,0.00,,,0.00,Weather View 32 v70,2013-01-26 17:09:00,
2013-01-26 12:14:00,44.6,18.6,30.11,SE,136,0.0,10.0,35,0.00,,,0.00,Weather View 32 v70,2013-01-26 17:14:00,
2013-01-26 12:19:00,45.0,20.3,30.10,North,356,1.0,10.0,37,0.00,,,0.00,Weather View 32 v70,2013-01-26 17:19:00,
2013-01-26 12:24:00,45.2,19.8,30.10,NNW,339,0.0,10.0,36,0.00,,,0.00,Weather View 32 v70,2013-01-26 17:24:00,
2013-01-26 12:29:00,45.5,21.9,30.10,NNE,25,2.0,10.0,39,0.00,,,0.00,Weather View 32 v70,2013-01-26 17:29:00,
2013-01-26 12:34:00,45.7,22.1,30.10,North,355,0.0,10.0,39,0.00,,,0.00,Weather View 32 v70,2013-01-26 17:34:00,
2013-01-26 12:39:00,46.1,19.9,30.10,NE,34,2.0,10.0,35,0.00,,,0.00,Weather View 32 v70,2013-01-26 17:39:00,
2013-01-26 12:44:00,46.3,20.1,30.10,NE,53,2.0,10.0,35,0.00,,,0.00,Weather View 32 v70,2013-01-26 17:44:00,
2013-01-26 12:49:00,46.4,22.1,30.10,SSE,149,0.0,10.0,38,0.00,,,0.00,Weather View 32 v70,2013-01-26 17:49:00,
2013-01-26 12:54:00,46.0,23.0,30.10,North,5,5.0,10.0,40,0.00,,,0.00,Weather View 32 v70,2013-01-26 17:54:00,
2013-01-26 12:59:00,46.1,19.9,30.10,NE,54,1.0,8.0,35,0.00,,,0.00,Weather View 32 v70,2013-01-26 17:59:00,
2013-01-26 13:04:00,46.3,23.3,30.10,NE,34,0.0,8.0,40,0.00,,,0.00,Weather View 32 v70,2013-01-26 18:04:00,
2013-01-26 13:09:00,46.3,23.3,30.10,North,354,0.0,8.0,40,0.00,,,0.00,Weather View 32 v70,2013-01-26 18:09:00,
2013-01-26 13:14:00,46.0,23.0,30.10,NNW,347,4.0,8.0,40,0.00,,,0.00,Weather View 32 v70,2013-01-26 18:14:00,
2013-01-26 13:19:00,45.9,25.7,30.10,NNW,340,0.0,8.0,45,0.00,,,0.00,Weather View 32 v70,2013-01-26 18:19:00,
2013-01-26 13:24:00,45.9,26.8,30.10,NE,48,2.0,8.0,47,0.00,,,0.00,Weather View 32 v70,2013-01-26 18:24:00,
2013-01-26 13:29:00,45.9,24.6,30.10,NNE,12,0.0,8.0,43,0.00,,,0.00,Weather View 32 v70,2013-01-26 18:29:00,
2013-01-26 13:34:00,46.1,24.2,30.10,NNE,12,1.0,8.0,42,0.00,,,0.00,Weather View 32 v70,2013-01-26 18:34:00,
2013-01-26 13:39:00,46.6,24.7,30.10,NNE,17,1.0,7.0,42,0.00,,,0.00,Weather View 32 v70,2013-01-26 18:39:00,
2013-01-26 13:44:00,47.1,24.6,30.10,North,354,0.0,7.0,41,0.00,,,0.00,Weather View 32 v70,2013-01-26 18:44:00,
2013-01-26 13:49:00,47.3,24.2,30.10,NW,304,0.0,7.0,40,0.00,,,0.00,Weather View 32 v70,2013-01-26 18:49:00,
2013-01-26 13:54:00,47.3,23.6,30.10,West,272,0.0,7.0,39,0.00,,,0.00,Weather View 32 v70,2013-01-26 18:54:00,
2013-01-26 13:59:00,47.3,24.8,30.09,North,353,2.0,5.0,41,0.00,,,0.00,Weather View 32 v70,2013-01-26 18:59:00,
2013-01-26 14:04:00,47.4,24.2,30.09,NNE,14,0.0,5.0,40,0.00,,,0.00,Weather View 32 v70,2013-01-26 19:04:00,
2013-01-26 14:10:00,47.3,23.6,30.09,North,353,2.0,5.0,39,0.00,,,0.00,Weather View 32 v70,2013-01-26 19:10:00,
2013-01-26 14:15:00,47.6,23.8,30.09,NNE,31,0.0,5.0,39,0.00,,,0.00,Weather View 32 v70,2013-01-26 19:15:00,
2013-01-26 14:20:00,47.8,24.6,30.09,North,6,0.0,5.0,40,0.00,,,0.00,Weather View 32 v70,2013-01-26 19:20:00,
2013-01-26 14:25:00,48.2,23.1,30.08,NNE,19,0.0,5.0,37,0.00,,,0.00,Weather View 32 v70,2013-01-26 19:25:00,
2013-01-26 14:30:00,48.8,25.5,30.09,NE,54,3.0,5.0,40,0.00,,,0.00,Weather View 32 v70,2013-01-26 19:30:00,
2013-01-26 14:35:00,48.9,22.4,30.09,East,81,0.0,7.0,35,0.00,,,0.00,Weather View 32 v70,2013-01-26 19:35:00,
2013-01-26 14:40:00,48.9,21.0,30.09,West,277,3.0,7.0,33,0.00,,,0.00,Weather View 32 v70,2013-01-26 19:40:00,
2013-01-26 14:45:00,49.4,22.2,30.09,WSW,250,0.0,7.0,34,0.00,,,0.00,Weather View 32 v70,2013-01-26 19:45:00,
2013-01-26 14:50:00,49.8,23.2,30.09,NNW,336,3.0,7.0,35,0.00,,,0.00,Weather View 32 v70,2013-01-26 19:50:00,
2013-01-26 14:55:00,49.9,25.3,30.09,ENE,68,0.0,7.0,38,0.00,,,0.00,Weather View 32 v70,2013-01-26 19:55:00,
2013-01-26 15:00:00,49.7,24.4,30.09,NNE,23,1.0,7.0,37,0.00,,,0.00,Weather View 32 v70,2013-01-26 20:00:00,
2013-01-26 15:05:00,49.3,22.8,30.10,NNW,340,2.0,7.0,35,0.00,,,0.00,Weather View 32 v70,2013-01-26 20:05:00,
2013-01-26 15:10:00,49.1,22.6,30.10,NNE,21,0.0,7.0,35,0.00,,,0.00,Weather View 32 v70,2013-01-26 20:10:00,
2013-01-26 15:15:00,48.8,26.1,30.10,SW,221,0.0,7.0,41,0.00,,,0.00,Weather View 32 v70,2013-01-26 20:15:00,
2013-01-26 15:20:00,48.2,28.4,30.10,SW,215,0.0,7.0,46,0.00,,,0.00,Weather View 32 v70,2013-01-26 20:20:00,
2013-01-26 15:25:00,48.0,25.4,30.10,NNE,16,0.0,7.0,41,0.00,,,0.00,Weather View 32 v70,2013-01-26 20:25:00,
2013-01-26 15:30:00,48.1,24.9,30.09,NNE,14,0.0,7.0,40,0.00,,,0.00,Weather View 32 v70,2013-01-26 20:30:00,
2013-01-26 15:35:00,48.6,28.7,30.10,ESE,122,0.0,5.0,46,0.00,,,0.00,Weather View 32 v70,2013-01-26 20:35:00,
2013-01-26 15:40:00,49.2,25.3,30.10,ENE,76,4.0,5.0,39,0.00,,,0.00,Weather View 32 v70,2013-01-26 20:40:00,
2013-01-26 15:45:00,49.5,26.1,30.10,ENE,75,0.0,5.0,40,0.00,,,0.00,Weather View 32 v70,2013-01-26 20:45:00,
2013-01-26 15:50:00,49.6,27.4,30.10,ENE,76,0.0,5.0,42,0.00,,,0.00,Weather View 32 v70,2013-01-26 20:50:00,
2013-01-26 15:55:00,49.7,25.7,30.10,ENE,75,0.0,5.0,39,0.00,,,0.00,Weather View 32 v70,2013-01-26 20:55:00,
2013-01-26 16:00:00,49.7,25.1,30.11,ENE,75,0.0,5.0,38,0.00,,,0.00,Weather View 32 v70,2013-01-26 21:00:00,
2013-01-26 16:05:00,49.7,23.8,30.11,ENE,74,0.0,5.0,36,0.00,,,0.00,Weather View 32 v70,2013-01-26 21:05:00,
2013-01-26 16:10:00,49.8,23.2,30.11,North,6,0.0,5.0,35,0.00,,,0.00,Weather View 32 v70,2013-01-26 21:10:00,
2013-01-26 16:15:00,49.9,21.9,30.11,NNW,334,0.0,5.0,33,0.00,,,0.00,Weather View 32 v70,2013-01-26 21:15:00,
2013-01-26 16:20:00,50.1,22.8,30.11,East,92,0.0,5.0,34,0.00,,,0.00,Weather View 32 v70,2013-01-26 21:20:00,
2013-01-26 16:25:00,50.0,22.0,30.11,North,11,0.0,5.0,33,0.00,,,0.00,Weather View 32 v70,2013-01-26 21:25:00,
2013-01-26 16:30:00,49.3,25.3,30.10,North,11,0.0,5.0,39,0.00,,,0.00,Weather View 32 v70,2013-01-26 21:30:00,
2013-01-26 16:35:00,48.5,24.6,30.11,North,11,0.0,5.0,39,0.00,,,0.00,Weather View 32 v70,2013-01-26 21:35:00,
2013-01-26 16:40:00,48.3,26.8,30.11,NNE,14,0.0,5.0,43,0.00,,,0.00,Weather View 32 v70,2013-01-26 21:40:00,
2013-01-26 16:45:00,48.7,25.4,30.11,NNE,14,0.0,0.0,40,0.00,,,0.00,Weather View 32 v70,2013-01-26 21:45:00,
2013-01-26 16:50:00,49.4,28.4,30.11,NNE,22,0.0,0.0,44,0.00,,,0.00,Weather View 32 v70,2013-01-26 21:50:00,
2013-01-26 16:55:00,50.0,25.3,30.11,North,354,0.0,0.0,38,0.00,,,0.00,Weather View 32 v70,2013-01-26 21:55:00,
2013-01-26 17:00:00,50.3,27.5,30.11,North,11,0.0,0.0,41,0.00,,,0.00,Weather View 32 v70,2013-01-26 22:00:00,
2013-01-26 17:05:00,50.3,25.0,30.11,North,10,0.0,0.0,37,0.00,,,0.00,Weather View 32 v70,2013-01-26 22:05:00,
2013-01-26 17:10:00,49.6,28.5,30.11,North,8,0.0,0.0,44,0.00,,,0.00,Weather View 32 v70,2013-01-26 22:10:00,
2013-01-26 17:15:00,48.9,26.2,30.12,North,8,0.0,0.0,41,0.00,,,0.00,Weather View 32 v70,2013-01-26 22:15:00,
2013-01-26 17:20:00,48.3,29.0,30.12,North,10,0.0,0.0,47,0.00,,,0.00,Weather View 32 v70,2013-01-26 22:20:00,
2013-01-26 17:25:00,47.3,29.6,30.11,WSW,240,0.0,0.0,50,0.00,,,0.00,Weather View 32 v70,2013-01-26 22:25:00,
2013-01-26 17:30:00,46.2,30.0,30.12,SE,145,0.0,2.0,53,0.00,,,0.00,Weather View 32 v70,2013-01-26 22:30:00,
2013-01-26 17:35:00,45.6,30.8,30.12,SSW,201,0.0,2.0,56,0.00,,,0.00,Weather View 32 v70,2013-01-26 22:35:00,
2013-01-26 17:40:00,44.4,30.1,30.12,SSW,201,0.0,2.0,57,0.00,,,0.00,Weather View 32 v70,2013-01-26 22:40:00,
2013-01-26 17:45:00,43.5,27.9,30.12,South,188,0.0,2.0,54,0.00,,,0.00,Weather View 32 v70,2013-01-26 22:45:00,
2013-01-26 17:50:00,42.9,28.7,30.12,WSW,247,2.0,2.0,57,0.00,,,0.00,Weather View 32 v70,2013-01-26 22:50:00,
2013-01-26 17:55:00,42.6,28.4,30.12,South,176,0.0,2.0,57,0.00,,,0.00,Weather View 32 v70,2013-01-26 22:55:00,
2013-01-26 18:00:00,41.5,27.0,30.12,SW,230,0.0,2.0,56,0.00,,,0.00,Weather View 32 v70,2013-01-26 23:00:00,
2013-01-26 18:05:00,40.9,28.9,30.13,SSW,204,0.0,2.0,62,0.00,,,0.00,Weather View 32 v70,2013-01-26 23:05:00,
2013-01-26 18:10:00,40.2,28.6,30.13,SSW,201,0.0,2.0,63,0.00,,,0.00,Weather View 32 v70,2013-01-26 23:10:00,
2013-01-26 18:15:00,39.5,27.5,30.12,SSW,208,0.0,2.0,62,0.00,,,0.00,Weather View 32 v70,2013-01-26 23:15:00,
2013-01-26 18:20:00,39.1,29.1,30.13,SSE,162,1.0,3.0,67,0.00,,,0.00,Weather View 32 v70,2013-01-26 23:20:00,
2013-01-26 18:25:00,38.6,27.5,30.13,SSW,206,1.0,3.0,64,0.00,,,0.00,Weather View 32 v70,2013-01-26 23:25:00,
2013-01-26 18:30:00,38.1,28.8,30.13,SW,218,0.0,3.0,69,0.00,,,0.00,Weather View 32 v70,2013-01-26 23:30:00,
2013-01-26 18:35:00,37.6,28.7,30.13,SSW,206,1.0,3.0,70,0.00,,,0.00,Weather View 32 v70,2013-01-26 23:35:00,
2013-01-26 18:40:00,37.4,28.2,30.14,SSE,168,0.0,3.0,69,0.00,,,0.00,Weather View 32 v70,2013-01-26 23:40:00,
2013-01-26 18:45:00,37.0,28.1,30.14,SW,227,3.0,3.0,70,0.00,,,0.00,Weather View 32 v70,2013-01-26 23:45:00,
2013-01-26 18:50:00,37.2,27.2,30.14,SSW,196,0.0,3.0,67,0.00,,,0.00,Weather View 32 v70,2013-01-26 23:50:00,
2013-01-26 18:55:00,36.8,29.0,30.14,SSW,202,0.0,3.0,73,0.00,,,0.00,Weather View 32 v70,2013-01-26 23:55:00,
2013-01-26 19:00:00,36.5,29.0,30.15,SSW,204,2.0,3.0,74,0.00,,,0.00,Weather View 32 v70,2013-01-27 00:00:00,
2013-01-26 19:05:00,36.0,27.2,30.15,SW,225,2.0,3.0,70,0.00,,,0.00,Weather View 32 v70,2013-01-27 00:05:00,
2013-01-26 19:11:00,36.0,28.5,30.15,SSW,204,0.0,3.0,74,0.00,,,0.00,Weather View 32 v70,2013-01-27 00:11:00,
2013-01-26 19:16:00,35.7,27.9,30.15,SW,218,0.0,3.0,73,0.00,,,0.00,Weather View 32 v70,2013-01-27 00:16:00,
2013-01-26 19:21:00,35.6,28.5,30.15,SSW,209,0.0,3.0,75,0.00,,,0.00,Weather View 32 v70,2013-01-27 00:21:00,
2013-01-26 19:26:00,35.5,27.7,30.15,SSW,208,0.0,3.0,73,0.00,,,0.00,Weather View 32 v70,2013-01-27 00:26:00,
2013-01-26 19:31:00,35.2,28.7,30.16,SW,220,0.0,3.0,77,0.00,,,0.00,Weather View 32 v70,2013-01-27 00:31:00,
2013-01-26 19:36:00,35.0,28.5,30.16,SSW,211,0.0,3.0,77,0.00,,,0.00,Weather View 32 v70,2013-01-27 00:36:00,
2013-01-26 19:41:00,34.8,28.6,30.16,SW,215,0.0,3.0,78,0.17,,,0.00,Weather View 32 v70,2013-01-27 00:41:00,
2013-01-26 19:46:00,34.7,29.2,30.16,SSW,209,0.0,3.0,80,0.00,,,0.00,Weather View 32 v70,2013-01-27 00:46:00,
2013-01-26 19:51:00,34.4,29.2,30.16,SW,221,0.0,3.0,81,0.00,,,0.00,Weather View 32 v70,2013-01-27 00:51:00,
2013-01-26 19:56:00,34.1,28.0,30.16,SSW,207,0.0,3.0,78,0.00,,,0.00,Weather View 32 v70,2013-01-27 00:56:00,
2013-01-26 20:01:00,34.0,29.1,30.16,SW,222,0.0,3.0,82,0.00,,,0.00,Weather View 32 v70,2013-01-27 01:01:00,
2013-01-26 20:06:00,33.9,28.7,30.16,SW,221,0.0,2.0,81,0.00,,,0.00,Weather View 32 v70,2013-01-27 01:06:00,
2013-01-26 20:11:00,33.9,28.4,30.16,SSW,211,0.0,0.0,80,0.00,,,0.00,Weather View 32 v70,2013-01-27 01:11:00,
2013-01-26 20:16:00,33.9,29.0,30.17,SSW,206,0.0,0.0,82,0.00,,,0.00,Weather View 32 v70,2013-01-27 01:16:00,
2013-01-26 20:21:00,33.8,28.9,30.17,SSW,207,0.0,0.0,82,0.00,,,0.00,Weather View 32 v70,2013-01-27 01:21:00,
2013-01-26 20:26:00,33.6,28.7,30.17,SW,218,0.0,0.0,82,0.00,,,0.00,Weather View 32 v70,2013-01-27 01:26:00,
2013-01-26 20:31:00,33.4,27.0,30.17,SW,224,0.0,0.0,77,0.00,,,0.00,Weather View 32 v70,2013-01-27 01:31:00,
2013-01-26 20:36:00,33.6,27.8,30.17,SSW,209,0.0,0.0,79,0.00,,,0.00,Weather View 32 v70,2013-01-27 01:36:00,
2013-01-26 20:41:00,33.4,28.5,30.17,SSW,210,0.0,0.0,82,0.00,,,0.00,Weather View 32 v70,2013-01-27 01:41:00,
2013-01-26 20:46:00,33.3,29.0,30.18,SSW,208,0.0,0.0,84,0.00,,,0.00,Weather View 32 v70,2013-01-27 01:46:00,
2013-01-26 20:51:00,33.0,28.7,30.18,SSW,209,0.0,0.0,84,0.00,,,0.00,Weather View 32 v70,2013-01-27 01:51:00,
2013-01-26 20:56:00,32.9,28.3,30.18,SSW,209,0.0,0.0,83,0.00,,,0.00,Weather View 32 v70,2013-01-27 01:56:00,
2013-01-26 21:01:00,32.7,27.2,30.18,SW,216,0.0,0.0,80,0.00,,,0.00,Weather View 32 v70,2013-01-27 02:01:00,
2013-01-26 21:06:00,32.7,28.4,30.18,SSW,213,0.0,0.0,84,0.00,,,0.00,Weather View 32 v70,2013-01-27 02:06:00,
2013-01-26 21:11:00,32.3,27.1,30.18,SW,222,0.0,0.0,81,0.00,,,0.00,Weather View 32 v70,2013-01-27 02:11:00,
2013-01-26 21:16:00,32.5,27.6,30.19,SW,218,0.0,0.0,82,0.00,,,0.00,Weather View 32 v70,2013-01-27 02:16:00,
2013-01-26 21:21:00,32.4,28.4,30.19,SW,217,0.0,0.0,85,0.00,,,0.00,Weather View 32 v70,2013-01-27 02:21:00,
2013-01-26 21:26:00,32.3,28.6,30.19,SW,217,0.0,0.0,86,0.00,,,0.00,Weather View 32 v70,2013-01-27 02:26:00,
2013-01-26 21:31:00,32.2,28.5,30.19,SW,217,0.0,0.0,86,0.00,,,0.00,Weather View 32 v70,2013-01-27 02:31:00,
2013-01-26 21:36:00,32.1,28.4,30.20,SW,217,0.0,0.0,86,0.00,,,0.00,Weather View 32 v70,2013-01-27 02:36:00,
2013-01-26 21:41:00,31.9,28.2,30.19,SW,218,0.0,0.0,86,0.00,,,0.00,Weather View 32 v70,2013-01-27 02:41:00,
2013-01-26 21:46:00,31.9,27.6,30.19,SW,217,0.0,0.0,84,0.00,,,0.00,Weather View 32 v70,2013-01-27 02:46:00,
2013-01-26 21:51:00,31.9,28.5,30.20,SW,217,0.0,0.0,87,0.00,,,0.00,Weather View 32 v70,2013-01-27 02:51:00,
2013-01-26 21:56:00,31.8,28.7,30.20,SW,217,0.0,0.0,88,0.00,,,0.00,Weather View 32 v70,2013-01-27 02:56:00,
2013-01-26 22:01:00,31.6,28.2,30.20,SW,217,0.0,0.0,87,0.00,,,0.00,Weather View 32 v70,2013-01-27 03:01:00,
2013-01-26 22:06:00,31.3,27.9,30.20,SW,218,0.0,0.0,87,0.00,,,0.00,Weather View 32 v70,2013-01-27 03:06:00,
2013-01-26 22:12:00,31.3,27.9,30.20,SW,215,0.0,0.0,87,0.00,,,0.00,Weather View 32 v70,2013-01-27 03:12:00,
2013-01-26 22:17:00,31.4,28.3,30.20,SSW,213,0.0,0.0,88,0.00,,,0.00,Weather View 32 v70,2013-01-27 03:17:00,
2013-01-26 22:22:00,31.3,28.2,30.20,SSW,213,0.0,0.0,88,0.17,,,0.00,Weather View 32 v70,2013-01-27 03:22:00,
2013-01-26 22:27:00,31.3,28.2,30.21,SSW,213,0.0,0.0,88,0.00,,,0.00,Weather View 32 v70,2013-01-27 03:27:00,
2013-01-26 22:32:00,31.0,28.1,30.21,SSW,212,0.0,0.0,89,0.00,,,0.00,Weather View 32 v70,2013-01-27 03:32:00,
2013-01-26 22:37:00,30.8,27.9,30.21,SW,214,0.0,0.0,89,0.00,,,0.00,Weather View 32 v70,2013-01-27 03:37:00,
2013-01-26 22:42:00,30.9,27.5,30.21,SSW,213,0.0,0.0,87,0.00,,,0.00,Weather View 32 v70,2013-01-27 03:42:00,
2013-01-26 22:47:00,30.8,27.7,30.21,SSW,212,0.0,0.0,88,0.00,,,0.00,Weather View 32 v70,2013-01-27 03:47:00,
2013-01-26 22:52:00,30.8,27.7,30.22,SSW,211,0.0,0.0,88,0.00,,,0.00,Weather View 32 v70,2013-01-27 03:52:00,
2013-01-26 22:57:00,30.8,28.2,30.22,SSW,211,0.0,0.0,90,0.00,,,0.00,Weather View 32 v70,2013-01-27 03:57:00,
2013-01-26 23:02:00,30.8,28.2,30.22,SSW,211,0.0,0.0,90,0.00,,,0.00,Weather View 32 v70,2013-01-27 04:02:00,
2013-01-26 23:07:00,30.4,26.4,30.22,SSW,211,0.0,0.0,85,0.00,,,0.00,Weather View 32 v70,2013-01-27 04:07:00,
2013-01-26 23:12:00,30.5,27.6,30.22,SSW,211,0.0,0.0,89,0.00,,,0.00,Weather View 32 v70,2013-01-27 04:12:00,
2013-01-26 23:17:00,30.2,26.5,30.23,SSW,212,0.0,0.0,86,0.00,,,0.00,Weather View 32 v70,2013-01-27 04:17:00,
2013-01-26 23:22:00,30.3,27.2,30.23,SSW,212,0.0,0.0,88,0.00,,,0.00,Weather View 32 v70,2013-01-27 04:22:00,
2013-01-26 23:27:00,30.3,27.7,30.23,SSW,212,0.0,0.0,90,0.00,,,0.00,Weather View 32 v70,2013-01-27 04:27:00,
2013-01-26 23:32:00,30.2,25.9,30.23,SW,215,0.0,0.0,84,0.00,,,0.00,Weather View 32 v70,2013-01-27 04:32:00,
2013-01-26 23:37:00,30.3,26.0,30.23,SW,215,0.0,0.0,84,0.00,,,0.00,Weather View 32 v70,2013-01-27 04:37:00,
2013-01-26 23:42:00,30.3,26.6,30.23,SW,215,0.0,0.0,86,0.00,,,0.00,Weather View 32 v70,2013-01-27 04:42:00,
2013-01-26 23:47:00,30.0,26.3,30.23,SW,215,0.0,0.0,86,0.00,,,0.00,Weather View 32 v70,2013-01-27 04:47:00,
2013-01-26 23:52:00,29.8,26.4,30.23,SSW,213,0.0,0.0,87,0.00,,,0.00,Weather View 32 v70,2013-01-27 04:52:00,
2013-01-26 23:57:00,29.5,25.8,30.23,SW,214,0.0,0.0,86,0.00,,,0.00,Weather View 32 v70,2013-01-27 04:57:00,